GEFSSGP_prec_meanprecacc_282.txt.gz
Total_Precipitation_Accumulation
2.50 2.45 2.98 4.00 4.61 4.11 3.64 2.89 2.45 2.29 1.91 1.49 1.15 1.14 1.43 1.87 2.34 2.77 3.08 2.91 2.01 1.57 1.65 2.44 3.10 2.81 2.32 2.01 1.87 1.88 1.82 1.90 1.82 1.79 1.62 1.50 1.38 1.26 1.11 1.01 1.05 1.03 0.94 0.88 0.85 0.93 0.95 0.97 1.15
1.85 2.75 3.61 4.57 4.20 3.54 3.33 2.88 2.63 2.16 1.55 1.23 0.89 0.83 0.95 1.02 1.08 1.70 2.91 2.82 1.78 1.44 1.53 1.87 2.59 2.48 2.06 1.87 1.86 1.94 1.95 2.04 1.94 1.77 1.55 1.45 1.44 1.37 1.22 1.13 1.23 1.07 0.95 0.91 0.91 0.96 1.06 1.03 1.15
2.00 3.16 4.20 4.46 3.31 3.02 3.12 2.90 2.40 1.77 1.26 1.15 0.94 0.83 1.03 1.30 1.37 1.96 2.68 2.09 1.53 1.42 1.51 2.03 2.58 2.31 2.01 1.84 1.99 2.15 2.13 2.09 1.89 1.65 1.43 1.44 1.47 1.44 1.38 1.36 1.31 1.08 0.99 0.94 0.91 0.97 1.00 1.01 1.05
2.36 3.53 3.86 3.56 2.90 2.49 2.54 2.53 2.00 1.60 1.22 0.88 0.88 0.90 0.96 1.36 1.41 1.71 1.77 1.49 1.32 1.44 1.54 1.92 2.41 2.25 2.02 1.84 2.04 2.15 2.17 2.14 2.02 1.74 1.48 1.45 1.44 1.41 1.38 1.40 1.26 1.12 1.02 0.94 0.91 0.95 0.99 0.99 1.00
2.82 3.73 3.66 3.13 2.75 2.43 2.12 1.79 1.58 1.48 1.24 0.96 0.82 1.04 1.40 1.77 1.56 1.46 1.43 1.35 1.21 1.32 1.35 1.58 2.14 2.19 2.02 1.93 2.15 2.21 2.23 2.28 2.22 1.89 1.67 1.56 1.46 1.42 1.42 1.44 1.30 1.23 1.14 1.07 1.04 1.06 1.06 1.02 1.07
3.17 3.28 3.49 3.06 2.70 2.46 2.35 1.72 1.51 1.44 1.14 0.94 0.87 1.10 1.78 2.11 1.79 1.56 1.40 1.49 1.43 1.40 1.32 1.30 1.89 2.11 2.09 2.12 2.18 2.18 2.19 2.20 2.22 1.97 1.78 1.61 1.48 1.41 1.51 1.54 1.37 1.28 1.16 1.10 1.12 1.16 1.20 1.16 1.14
3.09 3.18 3.19 2.62 2.62 2.81 2.44 1.72 1.56 1.41 1.31 1.06 0.79 1.19 1.87 2.23 1.86 1.55 1.47 1.51 1.62 1.56 1.49 1.36 1.48 1.78 2.09 2.13 2.01 2.01 1.97 1.99 2.09 1.88 1.75 1.57 1.45 1.35 1.40 1.46 1.35 1.31 1.28 1.25 1.23 1.32 1.31 1.19 1.17
2.26 2.58 2.63 2.55 2.66 2.87 2.13 1.60 1.27 1.21 1.17 0.89 0.74 1.18 1.72 1.72 1.57 1.53 1.65 1.81 1.96 1.75 1.61 1.42 1.35 1.42 1.51 1.72 1.86 1.98 2.00 1.98 2.04 1.83 1.64 1.50 1.41 1.27 1.30 1.26 1.26 1.35 1.40 1.46 1.45 1.46 1.40 1.34 1.23
2.05 2.71 2.99 2.95 2.65 2.26 1.49 1.35 1.14 0.92 1.00 0.89 0.71 0.77 0.98 1.05 1.20 1.43 1.53 1.67 1.79 1.53 1.45 1.48 1.48 1.49 1.53 1.49 1.54 1.81 1.92 1.94 1.82 1.75 1.63 1.45 1.19 1.04 1.12 1.10 1.33 1.46 1.56 1.62 1.63 1.59 1.56 1.41 1.21
2.14 2.86 2.84 2.24 1.96 1.65 1.18 1.14 1.04 1.05 1.10 1.03 0.81 0.77 0.88 0.96 1.18 1.36 1.31 1.37 1.33 1.24 1.21 1.28 1.32 1.45 1.50 1.35 1.55 1.83 1.68 1.59 1.34 1.37 1.24 1.23 1.15 1.07 0.90 1.04 1.39 1.52 1.54 1.54 1.60 1.66 1.48 1.20 0.90
1.72 2.22 1.99 1.76 1.53 1.26 1.08 1.12 1.01 1.04 1.18 1.07 0.86 0.87 1.08 1.16 1.17 1.14 1.10 1.14 1.07 1.04 1.03 0.99 1.04 1.11 1.24 1.40 1.64 1.92 1.98 1.79 1.56 1.32 1.23 1.24 1.14 1.01 0.92 0.93 1.08 1.20 1.23 1.10 1.12 1.14 1.01 0.93 0.84
1.47 1.45 1.45 1.64 1.39 1.29 1.07 1.04 1.07 1.04 1.09 0.95 0.78 0.79 0.97 1.15 1.23 1.10 0.93 0.88 0.81 0.86 0.97 0.80 0.71 0.86 1.03 1.15 1.28 1.56 1.63 1.56 1.43 1.22 1.13 1.23 1.21 1.08 1.05 1.04 1.08 1.11 1.08 1.10 1.07 1.10 1.07 0.90 0.80
1.73 1.50 1.29 1.28 1.28 1.35 1.14 1.06 1.04 1.03 0.94 0.83 0.78 0.89 0.98 1.01 1.04 0.98 0.83 0.73 0.74 0.83 0.91 0.83 0.72 0.70 0.78 0.84 0.95 1.10 1.26 1.34 1.35 1.30 1.11 1.13 1.20 1.15 1.15 1.11 1.16 1.04 0.97 1.01 1.07 1.09 1.11 1.01 0.87
1.54 1.37 1.36 1.34 1.27 1.28 1.30 1.06 1.03 1.24 0.95 0.84 0.90 0.98 0.95 0.91 0.90 0.97 0.87 0.78 0.71 0.73 0.86 0.85 0.76 0.75 0.77 0.73 0.73 0.74 0.90 1.07 1.19 1.23 1.13 1.14 1.20 1.18 1.26 1.21 1.15 1.08 0.98 1.00 1.18 1.14 1.16 1.14 1.07
1.43 1.59 1.53 1.44 1.34 1.32 1.27 1.38 1.28 1.20 0.98 0.93 0.99 0.95 0.91 0.87 0.85 0.93 0.86 0.76 0.69 0.69 0.76 0.82 0.81 0.85 0.87 0.82 0.80 0.66 0.71 0.82 0.98 1.12 1.11 1.18 1.14 1.07 1.15 1.17 1.11 1.09 1.09 1.09 1.15 1.18 1.23 1.14 1.07
1.73 1.91 2.01 1.69 1.45 1.25 1.29 1.69 1.56 1.28 1.05 1.07 1.03 0.93 0.89 0.85 0.80 0.83 0.81 0.79 0.75 0.76 0.82 0.87 0.87 0.90 0.93 0.95 0.94 0.86 0.89 0.97 1.02 1.16 1.14 1.12 1.18 1.15 1.14 1.18 1.17 1.19 1.23 1.21 1.24 1.30 1.29 1.23 1.22
1.92 1.93 1.79 1.64 1.33 1.11 1.15 1.42 1.44 1.31 1.07 0.95 0.93 0.86 0.77 0.68 0.63 0.62 0.61 0.62 0.68 0.70 0.75 0.80 0.88 0.90 0.92 0.96 1.05 1.17 1.22 1.21 1.21 1.26 1.20 1.12 1.15 1.22 1.34 1.37 1.39 1.36 1.37 1.36 1.32 1.34 1.25 1.25 1.26
1.85 1.55 1.34 1.29 1.19 1.05 0.96 1.06 1.12 1.14 1.00 0.81 0.72 0.68 0.67 0.58 0.52 0.47 0.44 0.46 0.54 0.60 0.65 0.72 0.80 0.96 1.08 1.13 1.15 1.31 1.37 1.43 1.50 1.53 1.38 1.26 1.32 1.46 1.66 1.74 1.63 1.60 1.60 1.58 1.53 1.58 1.45 1.33 1.36
1.35 1.32 1.20 1.00 0.96 1.00 0.90 0.88 0.93 0.92 0.89 0.77 0.64 0.52 0.50 0.49 0.46 0.44 0.40 0.41 0.46 0.50 0.54 0.62 0.70 0.88 0.98 1.03 1.16 1.36 1.52 1.69 1.84 1.91 1.79 1.63 1.62 1.79 1.94 1.86 1.93 1.94 1.82 1.83 1.88 1.92 1.88 1.67 1.53
1.19 1.22 1.07 0.91 0.77 0.78 0.79 0.81 0.82 0.77 0.75 0.65 0.53 0.46 0.38 0.32 0.32 0.31 0.28 0.30 0.32 0.33 0.38 0.46 0.55 0.62 0.76 0.93 1.19 1.39 1.69 1.76 1.83 1.95 2.00 1.91 1.85 2.02 2.07 2.15 2.22 2.24 2.24 2.17 2.07 2.19 2.34 2.06 1.80
0.98 1.04 0.95 0.88 0.76 0.69 0.68 0.84 0.80 0.72 0.67 0.59 0.46 0.38 0.30 0.24 0.21 0.17 0.18 0.22 0.28 0.27 0.29 0.37 0.48 0.60 0.83 1.06 1.39 1.68 1.96 2.05 2.09 2.02 2.07 2.12 2.16 2.23 2.28 2.34 2.39 2.39 2.23 2.22 2.32 2.46 2.80 2.60 2.22
0.96 0.70 0.64 0.65 0.81 0.83 0.69 1.00 0.73 0.60 0.58 0.52 0.44 0.41 0.33 0.25 0.19 0.16 0.17 0.19 0.21 0.25 0.31 0.43 0.62 0.81 1.07 1.39 1.78 2.06 2.31 2.43 2.27 2.22 2.21 2.19 2.14 2.19 2.30 2.32 2.31 2.28 2.21 2.26 2.32 2.37 2.79 2.99 2.69
0.65 0.55 0.63 0.66 0.72 0.66 0.50 0.69 0.64 0.50 0.54 0.46 0.39 0.39 0.38 0.31 0.24 0.22 0.23 0.25 0.31 0.39 0.48 0.65 0.91 1.21 1.47 1.71 1.91 2.15 2.30 2.31 2.26 2.21 2.20 2.11 2.06 2.05 2.07 2.09 2.19 2.22 2.25 2.30 2.46 2.58 2.85 2.87 2.85
0.48 0.57 0.70 0.72 0.77 0.82 0.43 0.53 0.65 0.50 0.45 0.41 0.37 0.35 0.31 0.29 0.29 0.30 0.32 0.40 0.48 0.57 0.73 0.91 1.09 1.39 1.58 1.70 1.81 1.97 2.13 2.18 2.18 2.17 2.19 2.18 2.14 2.04 1.96 1.91 1.99 2.13 2.27 2.32 2.41 2.58 2.82 2.91 2.97
0.47 0.80 1.14 1.17 1.12 0.84 0.40 0.57 0.67 0.49 0.38 0.33 0.34 0.33 0.30 0.35 0.39 0.41 0.51 0.66 0.73 0.78 0.90 1.06 1.14 1.34 1.44 1.50 1.60 1.73 1.80 1.84 1.87 1.87 1.87 1.80 1.76 1.76 1.82 1.87 1.95 2.08 2.17 2.25 2.37 2.51 2.56 2.67 2.90
0.43 0.67 1.13 1.24 1.08 0.77 0.53 0.80 0.71 0.46 0.37 0.35 0.35 0.32 0.36 0.48 0.58 0.68 0.82 0.91 0.98 1.01 0.99 1.04 1.18 1.21 1.21 1.26 1.26 1.37 1.46 1.52 1.56 1.53 1.53 1.58 1.62 1.64 1.61 1.66 1.73 1.95 2.13 2.20 2.30 2.32 2.30 2.35 2.52
0.44 0.47 0.54 0.79 0.75 0.79 0.73 0.89 0.80 0.47 0.40 0.37 0.37 0.37 0.44 0.62 0.83 1.05 1.23 1.32 1.40 1.34 1.18 1.06 1.06 1.03 1.01 1.12 1.19 1.22 1.28 1.33 1.34 1.34 1.27 1.38 1.42 1.42 1.38 1.43 1.47 1.59 1.81 2.04 2.19 2.15 2.07 2.04 2.19
0.36 0.47 0.61 0.92 1.10 1.06 0.94 1.05 1.01 0.68 0.55 0.46 0.47 0.57 0.72 0.94 1.25 1.52 1.75 1.86 1.85 1.67 1.44 1.21 1.03 0.94 0.91 0.98 1.08 1.17 1.18 1.18 1.14 1.16 1.08 1.13 1.24 1.23 1.20 1.22 1.30 1.46 1.58 1.77 1.98 2.06 2.00 2.00 2.07
0.38 0.55 0.70 0.90 0.94 1.20 1.36 1.32 1.02 0.91 0.80 0.76 0.82 0.99 1.20 1.47 1.68 1.85 2.01 2.06 1.82 1.65 1.40 1.15 0.99 0.99 1.00 1.04 1.08 1.12 1.08 1.05 1.02 0.98 0.93 0.97 1.06 1.07 1.07 1.22 1.28 1.35 1.45 1.65 1.90 2.08 2.08 2.01 2.01
0.48 0.70 0.92 1.29 1.18 1.10 1.34 1.37 0.96 0.89 0.93 0.97 1.08 1.14 1.26 1.42 1.44 1.54 1.63 1.59 1.56 1.53 1.35 1.17 1.07 1.07 1.10 1.13 1.18 1.13 1.05 1.00 0.98 0.95 0.86 0.84 0.80 0.80 0.93 1.06 1.10 1.15 1.20 1.39 1.67 1.87 1.93 1.92 1.83

GEFSSGP_prec_meanprecacc_288.txt.gz
Total_Precipitation_Accumulation
2.54 2.48 3.01 4.02 4.63 4.14 3.67 2.92 2.47 2.31 1.94 1.51 1.17 1.15 1.45 1.88 2.36 2.81 3.14 2.95 2.05 1.60 1.69 2.51 3.17 2.87 2.36 2.04 1.91 1.93 1.86 1.96 1.90 1.87 1.68 1.55 1.42 1.30 1.15 1.03 1.08 1.06 0.97 0.91 0.87 0.95 0.98 0.99 1.18
1.89 2.79 3.65 4.61 4.24 3.58 3.35 2.90 2.65 2.18 1.58 1.25 0.91 0.84 0.96 1.03 1.10 1.74 2.96 2.86 1.81 1.47 1.55 1.89 2.64 2.52 2.10 1.90 1.89 1.99 2.01 2.11 2.01 1.83 1.60 1.50 1.49 1.42 1.27 1.17 1.27 1.11 0.99 0.94 0.93 0.99 1.09 1.06 1.17
2.04 3.20 4.23 4.47 3.34 3.05 3.15 2.92 2.43 1.80 1.29 1.17 0.96 0.84 1.04 1.31 1.40 2.00 2.73 2.13 1.56 1.43 1.53 2.05 2.62 2.36 2.05 1.87 2.04 2.23 2.22 2.17 1.96 1.70 1.49 1.49 1.53 1.50 1.44 1.40 1.35 1.11 1.02 0.97 0.94 1.01 1.04 1.03 1.07
2.40 3.58 3.90 3.58 2.93 2.52 2.57 2.56 2.02 1.62 1.24 0.89 0.88 0.90 0.96 1.38 1.44 1.75 1.82 1.53 1.34 1.45 1.55 1.94 2.45 2.30 2.08 1.90 2.13 2.25 2.27 2.23 2.10 1.81 1.55 1.50 1.50 1.47 1.44 1.46 1.31 1.16 1.05 0.96 0.94 0.98 1.04 1.01 1.03
2.85 3.77 3.70 3.17 2.77 2.45 2.16 1.82 1.60 1.50 1.25 0.96 0.83 1.05 1.42 1.80 1.59 1.50 1.46 1.39 1.23 1.32 1.36 1.59 2.19 2.24 2.08 1.98 2.19 2.25 2.29 2.35 2.29 1.97 1.76 1.65 1.52 1.47 1.46 1.48 1.34 1.26 1.17 1.10 1.07 1.10 1.09 1.05 1.10
3.20 3.30 3.51 3.10 2.73 2.48 2.37 1.74 1.53 1.46 1.15 0.94 0.88 1.11 1.80 2.14 1.82 1.60 1.42 1.51 1.45 1.41 1.33 1.32 1.94 2.18 2.15 2.18 2.22 2.22 2.23 2.26 2.28 2.04 1.85 1.67 1.53 1.47 1.55 1.58 1.40 1.31 1.18 1.12 1.13 1.19 1.23 1.19 1.17
3.11 3.20 3.20 2.64 2.65 2.83 2.45 1.74 1.57 1.42 1.33 1.07 0.80 1.20 1.89 2.26 1.90 1.59 1.50 1.54 1.64 1.57 1.50 1.39 1.51 1.81 2.14 2.19 2.06 2.05 2.02 2.02 2.13 1.93 1.81 1.62 1.50 1.39 1.45 1.50 1.39 1.34 1.31 1.27 1.25 1.35 1.36 1.22 1.20
2.28 2.60 2.64 2.56 2.68 2.89 2.14 1.62 1.30 1.24 1.22 0.91 0.75 1.20 1.72 1.74 1.60 1.57 1.68 1.83 1.98 1.76 1.63 1.43 1.36 1.44 1.53 1.75 1.89 2.02 2.06 2.03 2.09 1.90 1.69 1.54 1.44 1.31 1.35 1.31 1.31 1.40 1.44 1.50 1.49 1.49 1.42 1.36 1.27
2.07 2.73 3.00 2.95 2.67 2.27 1.50 1.36 1.16 0.94 1.01 0.90 0.72 0.79 0.98 1.06 1.22 1.46 1.55 1.69 1.80 1.54 1.45 1.48 1.48 1.50 1.55 1.50 1.56 1.84 1.96 1.98 1.85 1.78 1.67 1.48 1.21 1.07 1.15 1.15 1.38 1.51 1.60 1.66 1.66 1.61 1.58 1.43 1.24
2.16 2.87 2.84 2.25 1.97 1.66 1.19 1.15 1.05 1.06 1.11 1.04 0.82 0.78 0.90 0.98 1.20 1.38 1.33 1.37 1.34 1.24 1.22 1.29 1.32 1.45 1.50 1.36 1.56 1.84 1.69 1.59 1.35 1.37 1.24 1.24 1.15 1.08 0.92 1.08 1.44 1.58 1.59 1.59 1.64 1.69 1.50 1.21 0.91
1.74 2.24 2.00 1.77 1.55 1.27 1.09 1.13 1.02 1.04 1.19 1.08 0.87 0.88 1.09 1.17 1.19 1.16 1.11 1.15 1.08 1.04 1.03 0.99 1.05 1.11 1.24 1.40 1.64 1.93 1.99 1.79 1.57 1.32 1.23 1.25 1.14 1.02 0.93 0.94 1.10 1.23 1.26 1.13 1.14 1.16 1.02 0.93 0.85
1.48 1.47 1.46 1.66 1.41 1.31 1.09 1.05 1.07 1.04 1.09 0.96 0.79 0.80 0.98 1.16 1.25 1.13 0.96 0.91 0.83 0.87 0.97 0.81 0.71 0.86 1.03 1.15 1.28 1.56 1.63 1.56 1.43 1.22 1.14 1.23 1.22 1.09 1.05 1.05 1.09 1.12 1.10 1.12 1.08 1.12 1.07 0.90 0.81
1.76 1.53 1.32 1.31 1.31 1.37 1.15 1.07 1.05 1.04 0.95 0.84 0.79 0.91 1.00 1.03 1.06 1.00 0.88 0.78 0.77 0.84 0.91 0.83 0.72 0.71 0.78 0.84 0.95 1.10 1.27 1.34 1.36 1.31 1.11 1.13 1.21 1.17 1.16 1.12 1.16 1.06 0.98 1.03 1.08 1.10 1.12 1.02 0.88
1.57 1.41 1.41 1.41 1.32 1.32 1.32 1.07 1.04 1.25 0.96 0.84 0.91 0.99 0.97 0.93 0.92 0.98 0.91 0.83 0.74 0.74 0.86 0.86 0.76 0.75 0.77 0.74 0.74 0.75 0.90 1.08 1.19 1.23 1.13 1.15 1.22 1.21 1.29 1.23 1.17 1.10 1.01 1.03 1.20 1.15 1.17 1.15 1.08
1.46 1.62 1.57 1.49 1.39 1.36 1.30 1.41 1.31 1.20 0.99 0.93 1.00 0.95 0.92 0.88 0.86 0.95 0.88 0.79 0.72 0.70 0.76 0.82 0.81 0.85 0.87 0.82 0.80 0.66 0.71 0.82 0.98 1.12 1.12 1.19 1.15 1.10 1.18 1.19 1.12 1.11 1.12 1.13 1.17 1.20 1.26 1.18 1.10
1.75 1.93 2.03 1.72 1.47 1.27 1.30 1.71 1.58 1.29 1.06 1.08 1.04 0.94 0.90 0.86 0.81 0.85 0.83 0.81 0.78 0.78 0.83 0.88 0.88 0.91 0.94 0.96 0.94 0.86 0.89 0.97 1.03 1.18 1.16 1.14 1.20 1.17 1.16 1.18 1.17 1.21 1.25 1.23 1.25 1.32 1.31 1.26 1.25
1.93 1.94 1.79 1.66 1.34 1.12 1.16 1.44 1.46 1.32 1.08 0.96 0.94 0.87 0.79 0.70 0.65 0.64 0.64 0.65 0.71 0.75 0.78 0.82 0.89 0.91 0.93 0.97 1.06 1.19 1.23 1.22 1.21 1.27 1.22 1.14 1.17 1.23 1.35 1.38 1.40 1.37 1.38 1.38 1.33 1.36 1.27 1.27 1.27
1.85 1.55 1.35 1.30 1.20 1.06 0.97 1.07 1.12 1.14 1.01 0.83 0.73 0.69 0.68 0.59 0.54 0.49 0.47 0.50 0.57 0.64 0.70 0.76 0.82 0.98 1.09 1.15 1.16 1.32 1.38 1.45 1.52 1.54 1.39 1.27 1.33 1.47 1.67 1.76 1.65 1.62 1.62 1.60 1.54 1.59 1.48 1.36 1.38
1.36 1.33 1.20 1.01 0.97 1.02 0.91 0.89 0.93 0.92 0.90 0.78 0.66 0.53 0.51 0.50 0.48 0.46 0.42 0.44 0.49 0.54 0.58 0.66 0.73 0.90 0.99 1.04 1.17 1.37 1.54 1.71 1.86 1.93 1.80 1.65 1.63 1.80 1.95 1.87 1.95 1.97 1.84 1.84 1.90 1.93 1.89 1.71 1.57
1.19 1.22 1.08 0.91 0.78 0.80 0.80 0.82 0.83 0.78 0.77 0.66 0.55 0.47 0.39 0.33 0.33 0.32 0.29 0.32 0.34 0.36 0.40 0.49 0.57 0.64 0.77 0.94 1.20 1.40 1.69 1.77 1.84 1.96 2.01 1.93 1.86 2.03 2.08 2.16 2.23 2.26 2.26 2.19 2.08 2.20 2.35 2.08 1.84
0.98 1.05 0.96 0.89 0.77 0.70 0.69 0.85 0.80 0.73 0.68 0.60 0.47 0.39 0.31 0.25 0.21 0.18 0.18 0.23 0.29 0.28 0.30 0.39 0.51 0.63 0.85 1.07 1.40 1.69 1.97 2.06 2.11 2.05 2.09 2.14 2.18 2.25 2.30 2.36 2.41 2.41 2.25 2.24 2.34 2.48 2.82 2.63 2.26
0.96 0.71 0.65 0.66 0.82 0.84 0.71 1.01 0.74 0.60 0.59 0.53 0.45 0.41 0.33 0.25 0.20 0.17 0.17 0.19 0.22 0.26 0.32 0.45 0.64 0.85 1.10 1.42 1.80 2.07 2.32 2.44 2.28 2.23 2.23 2.21 2.16 2.21 2.33 2.34 2.33 2.29 2.23 2.28 2.34 2.39 2.81 3.02 2.73
0.66 0.55 0.64 0.68 0.74 0.68 0.51 0.70 0.64 0.50 0.55 0.46 0.40 0.39 0.38 0.32 0.25 0.22 0.23 0.26 0.32 0.41 0.49 0.67 0.94 1.24 1.50 1.74 1.93 2.17 2.31 2.31 2.26 2.22 2.21 2.12 2.08 2.07 2.10 2.10 2.21 2.23 2.27 2.32 2.49 2.61 2.87 2.90 2.89
0.49 0.58 0.71 0.73 0.79 0.84 0.44 0.54 0.66 0.51 0.46 0.42 0.38 0.36 0.32 0.30 0.30 0.30 0.33 0.41 0.50 0.59 0.75 0.93 1.12 1.43 1.60 1.73 1.83 1.99 2.15 2.19 2.18 2.17 2.20 2.19 2.15 2.05 1.97 1.91 2.00 2.14 2.28 2.33 2.43 2.59 2.84 2.94 3.01
0.48 0.81 1.14 1.18 1.12 0.84 0.41 0.58 0.68 0.50 0.39 0.34 0.35 0.34 0.31 0.35 0.40 0.41 0.52 0.66 0.74 0.80 0.91 1.08 1.17 1.36 1.47 1.52 1.63 1.75 1.81 1.86 1.88 1.88 1.87 1.80 1.76 1.77 1.83 1.88 1.96 2.10 2.19 2.26 2.38 2.52 2.57 2.69 2.93
0.43 0.68 1.14 1.25 1.08 0.78 0.54 0.81 0.73 0.48 0.38 0.36 0.37 0.33 0.37 0.49 0.58 0.69 0.82 0.92 1.00 1.02 1.00 1.06 1.20 1.24 1.22 1.28 1.28 1.39 1.48 1.54 1.58 1.54 1.54 1.59 1.62 1.65 1.61 1.66 1.74 1.96 2.14 2.22 2.31 2.32 2.31 2.36 2.55
0.44 0.48 0.55 0.81 0.77 0.79 0.74 0.92 0.84 0.50 0.42 0.41 0.40 0.38 0.45 0.63 0.84 1.07 1.25 1.33 1.42 1.36 1.20 1.08 1.08 1.06 1.04 1.14 1.20 1.24 1.31 1.35 1.35 1.35 1.28 1.39 1.43 1.43 1.39 1.43 1.48 1.60 1.82 2.05 2.20 2.17 2.09 2.05 2.21
0.37 0.48 0.62 0.94 1.11 1.07 0.95 1.07 1.08 0.72 0.57 0.49 0.52 0.60 0.73 0.95 1.28 1.56 1.79 1.92 1.90 1.70 1.47 1.25 1.07 0.98 0.94 1.00 1.10 1.18 1.21 1.21 1.16 1.17 1.10 1.15 1.25 1.24 1.20 1.22 1.31 1.47 1.60 1.78 1.99 2.08 2.02 2.01 2.09
0.39 0.56 0.71 0.91 0.94 1.21 1.37 1.35 1.09 0.95 0.82 0.78 0.87 1.05 1.24 1.50 1.70 1.89 2.05 2.12 1.89 1.72 1.45 1.20 1.04 1.03 1.04 1.07 1.11 1.14 1.10 1.08 1.05 1.00 0.94 0.99 1.07 1.07 1.08 1.23 1.29 1.36 1.46 1.66 1.92 2.09 2.10 2.02 2.03
0.49 0.73 0.94 1.30 1.20 1.11 1.35 1.41 1.02 0.92 0.94 0.98 1.10 1.19 1.33 1.46 1.47 1.56 1.67 1.65 1.62 1.59 1.40 1.21 1.11 1.10 1.14 1.18 1.22 1.17 1.09 1.02 1.00 0.96 0.87 0.85 0.81 0.81 0.94 1.07 1.11 1.16 1.22 1.42 1.71 1.91 1.96 1.94 1.84

GEFSSGP_prec_meanprecacc_294.txt.gz
Total_Precipitation_Accumulation
2.56 2.49 3.03 4.03 4.65 4.15 3.68 2.93 2.49 2.34 1.98 1.55 1.19 1.17 1.46 1.89 2.38 2.86 3.20 2.98 2.07 1.62 1.72 2.55 3.23 2.91 2.40 2.07 1.93 1.97 1.92 2.03 1.98 1.95 1.76 1.62 1.48 1.39 1.22 1.08 1.14 1.10 1.00 0.94 0.90 0.99 1.02 1.03 1.22
1.90 2.80 3.66 4.62 4.26 3.60 3.37 2.92 2.67 2.20 1.61 1.27 0.94 0.86 0.97 1.05 1.12 1.79 3.02 2.89 1.83 1.48 1.57 1.92 2.67 2.55 2.12 1.92 1.91 2.02 2.04 2.16 2.07 1.89 1.68 1.58 1.57 1.51 1.33 1.21 1.31 1.14 1.02 0.97 0.95 1.02 1.11 1.08 1.20
2.05 3.21 4.24 4.49 3.36 3.06 3.17 2.95 2.45 1.83 1.31 1.19 0.99 0.86 1.06 1.34 1.43 2.05 2.80 2.16 1.57 1.45 1.54 2.07 2.66 2.39 2.08 1.89 2.06 2.26 2.25 2.22 2.03 1.76 1.56 1.55 1.60 1.56 1.49 1.45 1.41 1.15 1.06 0.99 0.97 1.05 1.07 1.06 1.12
2.41 3.60 3.91 3.60 2.95 2.53 2.60 2.59 2.04 1.64 1.26 0.90 0.89 0.92 0.98 1.41 1.48 1.80 1.87 1.56 1.35 1.46 1.56 1.96 2.50 2.35 2.13 1.96 2.18 2.30 2.32 2.31 2.18 1.90 1.64 1.59 1.57 1.53 1.49 1.51 1.36 1.20 1.10 1.00 0.97 1.03 1.09 1.07 1.09
2.87 3.79 3.72 3.19 2.80 2.48 2.20 1.85 1.62 1.52 1.27 0.97 0.83 1.05 1.44 1.84 1.63 1.52 1.48 1.41 1.25 1.34 1.37 1.61 2.22 2.30 2.16 2.07 2.28 2.33 2.37 2.43 2.38 2.08 1.87 1.71 1.56 1.51 1.50 1.52 1.38 1.29 1.20 1.13 1.10 1.13 1.13 1.08 1.13
3.23 3.32 3.54 3.12 2.76 2.53 2.42 1.77 1.54 1.47 1.16 0.95 0.89 1.12 1.82 2.17 1.85 1.61 1.43 1.52 1.47 1.43 1.34 1.33 1.96 2.22 2.20 2.25 2.30 2.28 2.29 2.32 2.35 2.13 1.92 1.72 1.57 1.50 1.60 1.62 1.43 1.34 1.21 1.15 1.17 1.22 1.27 1.23 1.20
3.16 3.23 3.22 2.66 2.68 2.87 2.49 1.76 1.58 1.44 1.34 1.08 0.82 1.22 1.92 2.29 1.92 1.61 1.52 1.54 1.64 1.57 1.51 1.39 1.53 1.83 2.17 2.23 2.11 2.10 2.07 2.08 2.18 2.01 1.87 1.67 1.55 1.45 1.51 1.55 1.43 1.38 1.34 1.31 1.29 1.39 1.39 1.25 1.23
2.31 2.63 2.67 2.58 2.70 2.91 2.16 1.64 1.32 1.26 1.24 0.92 0.76 1.22 1.75 1.76 1.62 1.59 1.69 1.84 1.98 1.76 1.63 1.44 1.37 1.45 1.54 1.76 1.92 2.06 2.11 2.09 2.15 1.96 1.74 1.57 1.48 1.35 1.41 1.38 1.35 1.43 1.48 1.53 1.52 1.53 1.46 1.39 1.30
2.08 2.76 3.03 2.97 2.69 2.30 1.52 1.38 1.17 0.95 1.03 0.92 0.74 0.81 1.01 1.08 1.23 1.47 1.57 1.70 1.80 1.54 1.45 1.49 1.48 1.50 1.55 1.50 1.57 1.87 2.01 2.03 1.90 1.82 1.70 1.51 1.23 1.10 1.20 1.21 1.43 1.54 1.64 1.69 1.70 1.65 1.60 1.45 1.27
2.17 2.89 2.86 2.26 1.98 1.68 1.21 1.17 1.07 1.07 1.13 1.05 0.84 0.80 0.93 1.01 1.22 1.39 1.34 1.39 1.35 1.25 1.23 1.30 1.33 1.45 1.51 1.37 1.58 1.86 1.70 1.60 1.36 1.39 1.26 1.27 1.17 1.10 0.94 1.11 1.48 1.62 1.63 1.62 1.67 1.71 1.51 1.22 0.92
1.75 2.25 2.02 1.77 1.55 1.28 1.10 1.14 1.02 1.05 1.21 1.09 0.89 0.90 1.13 1.20 1.21 1.18 1.12 1.15 1.09 1.05 1.03 0.99 1.06 1.12 1.25 1.41 1.65 1.94 2.00 1.80 1.57 1.32 1.24 1.27 1.16 1.04 0.94 0.96 1.12 1.26 1.28 1.14 1.16 1.17 1.03 0.94 0.86
1.49 1.48 1.47 1.66 1.41 1.31 1.09 1.06 1.08 1.05 1.10 0.97 0.80 0.82 1.00 1.18 1.26 1.14 0.97 0.93 0.84 0.87 0.98 0.81 0.71 0.86 1.04 1.16 1.29 1.57 1.64 1.57 1.43 1.22 1.14 1.25 1.24 1.10 1.06 1.06 1.11 1.13 1.12 1.14 1.11 1.14 1.09 0.91 0.82
1.79 1.56 1.34 1.32 1.32 1.38 1.16 1.07 1.06 1.04 0.95 0.84 0.79 0.92 1.01 1.04 1.08 1.02 0.89 0.80 0.79 0.86 0.92 0.83 0.72 0.71 0.79 0.85 0.96 1.11 1.27 1.35 1.36 1.31 1.12 1.14 1.24 1.19 1.17 1.12 1.17 1.07 0.99 1.05 1.11 1.12 1.14 1.03 0.89
1.60 1.44 1.44 1.44 1.35 1.33 1.33 1.07 1.06 1.26 0.96 0.85 0.92 1.01 0.98 0.93 0.93 1.00 0.93 0.86 0.78 0.78 0.88 0.87 0.77 0.76 0.78 0.75 0.75 0.75 0.90 1.08 1.20 1.23 1.13 1.16 1.23 1.24 1.31 1.25 1.18 1.11 1.02 1.05 1.22 1.17 1.19 1.16 1.09
1.48 1.64 1.59 1.51 1.41 1.38 1.31 1.42 1.33 1.21 1.00 0.94 1.01 0.97 0.93 0.89 0.87 0.96 0.89 0.80 0.76 0.75 0.79 0.85 0.83 0.86 0.88 0.84 0.81 0.67 0.71 0.82 0.99 1.13 1.13 1.20 1.16 1.11 1.19 1.20 1.13 1.12 1.13 1.13 1.18 1.22 1.28 1.19 1.11
1.76 1.94 2.05 1.73 1.48 1.28 1.32 1.76 1.62 1.30 1.07 1.10 1.06 0.96 0.92 0.87 0.82 0.86 0.84 0.82 0.79 0.81 0.85 0.91 0.91 0.93 0.96 0.97 0.95 0.87 0.91 0.99 1.06 1.21 1.19 1.17 1.22 1.18 1.17 1.20 1.18 1.22 1.25 1.23 1.26 1.33 1.33 1.28 1.27
1.94 1.95 1.80 1.66 1.35 1.13 1.17 1.46 1.49 1.34 1.11 0.99 0.97 0.91 0.82 0.73 0.69 0.67 0.66 0.67 0.73 0.77 0.81 0.86 0.95 0.97 0.99 1.02 1.10 1.21 1.26 1.26 1.26 1.32 1.26 1.17 1.21 1.26 1.38 1.41 1.41 1.37 1.39 1.38 1.33 1.36 1.28 1.28 1.30
1.86 1.56 1.35 1.31 1.21 1.07 0.99 1.09 1.14 1.16 1.04 0.87 0.78 0.75 0.75 0.65 0.61 0.55 0.52 0.54 0.62 0.68 0.74 0.80 0.87 1.03 1.14 1.18 1.18 1.34 1.40 1.47 1.53 1.57 1.42 1.30 1.36 1.49 1.68 1.77 1.67 1.63 1.62 1.61 1.55 1.60 1.49 1.38 1.41
1.36 1.33 1.21 1.02 0.98 1.03 0.93 0.92 0.96 0.95 0.93 0.81 0.70 0.58 0.55 0.53 0.51 0.48 0.45 0.48 0.53 0.57 0.62 0.70 0.76 0.92 1.02 1.06 1.19 1.39 1.55 1.72 1.87 1.94 1.82 1.67 1.65 1.81 1.95 1.88 1.96 1.98 1.84 1.84 1.90 1.94 1.91 1.73 1.60
1.20 1.23 1.08 0.92 0.79 0.81 0.82 0.84 0.86 0.80 0.80 0.69 0.58 0.50 0.41 0.34 0.34 0.33 0.30 0.33 0.35 0.37 0.41 0.50 0.59 0.65 0.79 0.96 1.21 1.42 1.71 1.78 1.85 1.97 2.02 1.94 1.88 2.04 2.09 2.16 2.24 2.27 2.27 2.20 2.09 2.21 2.36 2.10 1.88
0.99 1.05 0.96 0.90 0.78 0.72 0.70 0.86 0.82 0.75 0.70 0.61 0.48 0.40 0.32 0.25 0.22 0.18 0.18 0.23 0.29 0.28 0.31 0.40 0.53 0.65 0.87 1.10 1.42 1.70 1.99 2.08 2.12 2.07 2.11 2.16 2.20 2.26 2.30 2.36 2.41 2.42 2.27 2.26 2.36 2.49 2.83 2.65 2.28
0.97 0.71 0.66 0.68 0.84 0.86 0.72 1.02 0.75 0.62 0.60 0.54 0.46 0.42 0.34 0.25 0.20 0.17 0.17 0.19 0.22 0.26 0.32 0.46 0.66 0.87 1.13 1.45 1.83 2.09 2.34 2.46 2.29 2.25 2.24 2.22 2.18 2.22 2.34 2.35 2.33 2.30 2.24 2.30 2.36 2.41 2.83 3.05 2.75
0.67 0.56 0.65 0.69 0.75 0.69 0.52 0.71 0.65 0.51 0.56 0.48 0.41 0.40 0.39 0.32 0.25 0.23 0.23 0.26 0.32 0.41 0.50 0.68 0.95 1.26 1.52 1.76 1.96 2.20 2.33 2.33 2.27 2.22 2.23 2.13 2.09 2.08 2.11 2.11 2.22 2.24 2.27 2.34 2.50 2.63 2.89 2.92 2.91
0.49 0.58 0.72 0.74 0.80 0.85 0.46 0.55 0.67 0.52 0.47 0.43 0.39 0.36 0.32 0.30 0.30 0.30 0.33 0.41 0.51 0.59 0.75 0.94 1.13 1.44 1.62 1.75 1.86 2.02 2.16 2.21 2.19 2.18 2.21 2.20 2.16 2.05 1.98 1.92 2.01 2.14 2.29 2.34 2.43 2.60 2.85 2.96 3.04
0.49 0.82 1.16 1.19 1.13 0.85 0.41 0.59 0.69 0.51 0.40 0.35 0.35 0.34 0.32 0.36 0.40 0.41 0.52 0.66 0.74 0.80 0.92 1.09 1.18 1.38 1.48 1.54 1.65 1.78 1.84 1.87 1.89 1.89 1.88 1.81 1.77 1.77 1.83 1.88 1.97 2.10 2.19 2.26 2.38 2.52 2.58 2.70 2.95
0.44 0.69 1.16 1.26 1.09 0.78 0.55 0.82 0.74 0.49 0.40 0.37 0.37 0.34 0.37 0.49 0.59 0.69 0.83 0.92 1.00 1.03 1.01 1.06 1.21 1.25 1.24 1.29 1.29 1.40 1.50 1.55 1.59 1.55 1.55 1.60 1.62 1.65 1.61 1.66 1.74 1.96 2.15 2.22 2.32 2.33 2.31 2.37 2.56
0.45 0.49 0.56 0.82 0.77 0.80 0.75 0.93 0.85 0.51 0.43 0.43 0.42 0.40 0.47 0.64 0.85 1.08 1.26 1.35 1.43 1.37 1.21 1.09 1.09 1.07 1.06 1.16 1.22 1.25 1.32 1.36 1.37 1.36 1.30 1.40 1.43 1.43 1.39 1.43 1.48 1.60 1.82 2.06 2.21 2.17 2.10 2.06 2.22
0.37 0.49 0.63 0.96 1.13 1.08 0.96 1.08 1.09 0.74 0.58 0.51 0.55 0.62 0.75 0.96 1.29 1.57 1.82 1.95 1.93 1.73 1.49 1.27 1.09 0.99 0.96 1.03 1.11 1.19 1.21 1.21 1.17 1.19 1.11 1.16 1.26 1.25 1.21 1.22 1.31 1.47 1.60 1.78 2.00 2.09 2.03 2.02 2.10
0.40 0.57 0.72 0.92 0.96 1.22 1.38 1.37 1.12 0.97 0.83 0.79 0.89 1.08 1.26 1.51 1.73 1.92 2.08 2.17 1.93 1.76 1.50 1.25 1.08 1.06 1.06 1.10 1.12 1.15 1.11 1.09 1.06 1.01 0.96 1.00 1.09 1.08 1.08 1.23 1.29 1.37 1.47 1.67 1.93 2.10 2.11 2.03 2.04
0.50 0.74 0.96 1.32 1.21 1.12 1.36 1.42 1.04 0.94 0.95 0.99 1.11 1.20 1.34 1.47 1.49 1.60 1.70 1.69 1.67 1.63 1.45 1.26 1.15 1.14 1.17 1.20 1.23 1.18 1.12 1.06 1.03 0.98 0.89 0.87 0.82 0.81 0.94 1.07 1.11 1.16 1.22 1.43 1.71 1.92 1.98 1.95 1.85

GEFSSGP_prec_meanprecacc_300.txt.gz
Total_Precipitation_Accumulation
2.59 2.52 3.06 4.08 4.73 4.25 3.75 2.99 2.54 2.37 1.99 1.56 1.20 1.18 1.48 1.92 2.43 2.93 3.26 3.02 2.09 1.65 1.75 2.58 3.28 2.97 2.44 2.11 1.96 2.00 1.99 2.10 2.03 2.01 1.82 1.67 1.54 1.45 1.29 1.15 1.20 1.15 1.04 0.98 0.95 1.07 1.09 1.09 1.27
1.93 2.83 3.70 4.69 4.37 3.72 3.45 2.99 2.73 2.24 1.62 1.28 0.95 0.88 0.98 1.06 1.13 1.82 3.08 2.93 1.85 1.51 1.60 1.95 2.70 2.58 2.16 1.95 1.94 2.05 2.09 2.21 2.12 1.95 1.74 1.63 1.61 1.55 1.38 1.27 1.36 1.19 1.06 1.01 1.00 1.10 1.20 1.14 1.25
2.07 3.23 4.28 4.56 3.47 3.19 3.28 3.04 2.52 1.86 1.32 1.20 1.00 0.88 1.08 1.37 1.45 2.09 2.87 2.21 1.59 1.48 1.58 2.10 2.69 2.43 2.11 1.92 2.08 2.28 2.28 2.26 2.06 1.80 1.62 1.62 1.66 1.60 1.52 1.50 1.46 1.21 1.11 1.03 1.01 1.10 1.13 1.12 1.17
2.44 3.64 3.95 3.67 3.04 2.62 2.70 2.67 2.11 1.69 1.28 0.91 0.90 0.93 1.00 1.44 1.51 1.85 1.91 1.58 1.38 1.49 1.59 2.00 2.55 2.41 2.18 1.99 2.21 2.33 2.35 2.36 2.23 1.97 1.73 1.67 1.64 1.60 1.54 1.57 1.42 1.25 1.13 1.03 1.00 1.06 1.12 1.11 1.14
2.92 3.84 3.79 3.27 2.87 2.54 2.27 1.91 1.66 1.56 1.29 0.98 0.84 1.06 1.46 1.86 1.67 1.55 1.50 1.42 1.27 1.37 1.39 1.63 2.28 2.38 2.23 2.12 2.33 2.39 2.43 2.54 2.50 2.22 2.01 1.80 1.64 1.58 1.56 1.58 1.43 1.33 1.24 1.16 1.12 1.14 1.15 1.11 1.16
3.29 3.37 3.61 3.20 2.83 2.58 2.47 1.81 1.55 1.50 1.18 0.96 0.90 1.14 1.88 2.23 1.88 1.65 1.46 1.54 1.48 1.44 1.35 1.34 1.97 2.24 2.23 2.27 2.32 2.30 2.32 2.37 2.41 2.17 1.96 1.76 1.61 1.55 1.63 1.66 1.47 1.38 1.25 1.19 1.20 1.25 1.29 1.25 1.23
3.23 3.29 3.28 2.73 2.75 2.93 2.54 1.78 1.61 1.48 1.39 1.11 0.83 1.26 1.99 2.34 1.95 1.64 1.54 1.56 1.65 1.57 1.51 1.41 1.54 1.85 2.18 2.24 2.11 2.11 2.09 2.10 2.22 2.04 1.90 1.69 1.57 1.49 1.55 1.60 1.48 1.41 1.37 1.33 1.31 1.41 1.41 1.27 1.24
2.37 2.69 2.71 2.65 2.78 2.96 2.19 1.65 1.33 1.28 1.26 0.93 0.78 1.25 1.80 1.79 1.63 1.61 1.71 1.85 1.98 1.76 1.63 1.44 1.39 1.47 1.56 1.78 1.93 2.07 2.12 2.11 2.18 1.99 1.77 1.61 1.51 1.37 1.44 1.42 1.39 1.46 1.51 1.55 1.54 1.55 1.48 1.41 1.31
2.14 2.83 3.09 3.04 2.75 2.35 1.55 1.39 1.18 0.97 1.05 0.92 0.74 0.82 1.03 1.09 1.24 1.48 1.59 1.72 1.81 1.55 1.45 1.49 1.49 1.52 1.56 1.52 1.58 1.88 2.02 2.04 1.92 1.85 1.73 1.55 1.29 1.15 1.24 1.25 1.47 1.56 1.67 1.73 1.73 1.67 1.62 1.46 1.28
2.21 2.95 2.91 2.30 2.01 1.72 1.24 1.19 1.08 1.09 1.16 1.07 0.86 0.82 0.94 1.03 1.24 1.42 1.38 1.42 1.37 1.27 1.24 1.31 1.34 1.46 1.51 1.37 1.58 1.88 1.73 1.63 1.39 1.41 1.29 1.31 1.24 1.16 0.96 1.12 1.49 1.64 1.66 1.65 1.70 1.74 1.52 1.23 0.93
1.76 2.28 2.04 1.79 1.57 1.30 1.12 1.17 1.05 1.08 1.24 1.13 0.92 0.93 1.16 1.22 1.25 1.21 1.15 1.19 1.11 1.07 1.04 1.01 1.07 1.12 1.25 1.42 1.66 1.95 2.02 1.82 1.59 1.35 1.27 1.31 1.23 1.10 0.99 1.00 1.15 1.28 1.30 1.17 1.19 1.20 1.06 0.96 0.88
1.50 1.49 1.47 1.66 1.42 1.32 1.11 1.08 1.11 1.08 1.14 1.00 0.83 0.84 1.02 1.20 1.30 1.20 1.01 0.99 0.86 0.87 0.98 0.81 0.72 0.87 1.04 1.16 1.30 1.57 1.64 1.58 1.46 1.25 1.16 1.27 1.29 1.17 1.12 1.11 1.14 1.16 1.14 1.17 1.14 1.17 1.12 0.93 0.83
1.81 1.57 1.34 1.32 1.32 1.38 1.16 1.08 1.07 1.06 0.97 0.86 0.80 0.93 1.03 1.08 1.12 1.05 0.94 0.87 0.84 0.88 0.92 0.84 0.73 0.72 0.79 0.85 0.97 1.11 1.27 1.35 1.37 1.33 1.14 1.17 1.29 1.25 1.21 1.15 1.20 1.08 1.01 1.07 1.13 1.15 1.16 1.05 0.91
1.64 1.47 1.46 1.45 1.36 1.33 1.33 1.08 1.06 1.27 0.97 0.86 0.92 1.01 1.00 0.97 0.95 1.02 0.94 0.90 0.82 0.81 0.90 0.89 0.79 0.78 0.80 0.76 0.76 0.76 0.91 1.09 1.21 1.25 1.15 1.17 1.27 1.28 1.33 1.27 1.21 1.13 1.04 1.07 1.24 1.20 1.21 1.18 1.11
1.50 1.67 1.61 1.53 1.43 1.40 1.32 1.44 1.34 1.22 1.01 0.96 1.03 0.98 0.95 0.91 0.88 0.97 0.90 0.81 0.78 0.78 0.82 0.87 0.85 0.87 0.89 0.85 0.82 0.68 0.72 0.83 1.00 1.14 1.14 1.21 1.19 1.13 1.20 1.22 1.16 1.14 1.15 1.16 1.20 1.24 1.29 1.21 1.13
1.78 1.98 2.10 1.76 1.49 1.30 1.34 1.81 1.67 1.34 1.09 1.12 1.09 0.99 0.94 0.89 0.83 0.87 0.85 0.83 0.80 0.82 0.87 0.93 0.93 0.95 0.98 0.99 0.97 0.89 0.92 1.01 1.08 1.24 1.22 1.20 1.24 1.20 1.19 1.22 1.21 1.25 1.29 1.27 1.30 1.36 1.35 1.29 1.28
1.97 1.99 1.85 1.71 1.37 1.14 1.20 1.51 1.54 1.38 1.13 1.02 1.01 0.96 0.85 0.74 0.71 0.69 0.68 0.69 0.75 0.77 0.81 0.87 0.96 0.99 1.02 1.05 1.13 1.25 1.28 1.28 1.29 1.35 1.29 1.20 1.22 1.27 1.40 1.43 1.43 1.40 1.41 1.41 1.35 1.37 1.29 1.29 1.31
1.88 1.58 1.38 1.34 1.23 1.08 1.01 1.13 1.17 1.20 1.08 0.90 0.81 0.79 0.79 0.68 0.63 0.58 0.54 0.56 0.64 0.69 0.74 0.81 0.88 1.04 1.16 1.21 1.21 1.37 1.43 1.49 1.57 1.60 1.45 1.32 1.37 1.50 1.69 1.78 1.68 1.64 1.63 1.62 1.55 1.61 1.50 1.38 1.42
1.37 1.34 1.22 1.04 0.99 1.05 0.96 0.95 0.98 0.97 0.96 0.85 0.72 0.59 0.57 0.55 0.52 0.49 0.46 0.49 0.54 0.58 0.63 0.71 0.77 0.93 1.04 1.09 1.22 1.42 1.58 1.74 1.89 1.97 1.83 1.68 1.66 1.82 1.96 1.89 1.97 1.99 1.85 1.86 1.91 1.95 1.91 1.73 1.60
1.21 1.24 1.09 0.94 0.79 0.82 0.85 0.88 0.88 0.82 0.82 0.71 0.60 0.52 0.43 0.36 0.36 0.34 0.31 0.34 0.36 0.37 0.42 0.52 0.62 0.68 0.82 0.99 1.24 1.43 1.73 1.79 1.87 2.00 2.04 1.95 1.89 2.05 2.09 2.17 2.25 2.28 2.28 2.21 2.11 2.22 2.37 2.11 1.88
1.00 1.06 0.97 0.91 0.80 0.73 0.73 0.90 0.84 0.77 0.72 0.62 0.50 0.42 0.33 0.26 0.22 0.18 0.19 0.24 0.29 0.29 0.32 0.42 0.54 0.68 0.91 1.13 1.46 1.74 2.02 2.10 2.15 2.10 2.14 2.17 2.21 2.27 2.31 2.37 2.42 2.43 2.28 2.27 2.38 2.51 2.85 2.67 2.30
0.99 0.73 0.67 0.68 0.85 0.89 0.75 1.06 0.78 0.64 0.62 0.56 0.47 0.43 0.35 0.26 0.20 0.17 0.18 0.19 0.23 0.27 0.34 0.47 0.67 0.89 1.15 1.48 1.86 2.13 2.38 2.48 2.31 2.27 2.27 2.24 2.19 2.23 2.35 2.36 2.34 2.30 2.24 2.31 2.37 2.42 2.84 3.06 2.77
0.68 0.56 0.66 0.71 0.76 0.72 0.54 0.74 0.68 0.53 0.59 0.51 0.42 0.41 0.40 0.32 0.25 0.23 0.24 0.26 0.33 0.42 0.51 0.70 0.97 1.27 1.54 1.78 1.98 2.23 2.36 2.36 2.30 2.25 2.25 2.15 2.10 2.08 2.12 2.12 2.22 2.24 2.27 2.34 2.50 2.64 2.91 2.94 2.93
0.49 0.59 0.73 0.76 0.82 0.88 0.48 0.57 0.69 0.53 0.49 0.47 0.41 0.37 0.33 0.30 0.30 0.30 0.33 0.42 0.51 0.60 0.77 0.96 1.14 1.45 1.64 1.77 1.87 2.03 2.18 2.22 2.21 2.21 2.23 2.21 2.16 2.06 1.98 1.92 2.01 2.15 2.29 2.34 2.44 2.60 2.86 2.97 3.06
0.49 0.84 1.19 1.22 1.16 0.88 0.42 0.60 0.71 0.52 0.40 0.36 0.37 0.35 0.32 0.36 0.41 0.42 0.53 0.67 0.76 0.81 0.94 1.11 1.19 1.39 1.50 1.55 1.65 1.79 1.85 1.88 1.90 1.90 1.90 1.82 1.77 1.77 1.83 1.88 1.97 2.10 2.19 2.26 2.38 2.52 2.59 2.71 2.96
0.45 0.70 1.19 1.30 1.12 0.81 0.56 0.84 0.75 0.49 0.40 0.38 0.38 0.34 0.38 0.50 0.60 0.70 0.84 0.93 1.01 1.04 1.02 1.07 1.22 1.25 1.25 1.30 1.30 1.41 1.51 1.57 1.60 1.56 1.56 1.61 1.64 1.66 1.62 1.66 1.74 1.96 2.15 2.22 2.32 2.33 2.32 2.38 2.57
0.47 0.50 0.57 0.84 0.79 0.83 0.78 0.95 0.87 0.51 0.43 0.43 0.43 0.40 0.48 0.65 0.85 1.09 1.28 1.36 1.44 1.39 1.22 1.10 1.10 1.08 1.07 1.17 1.23 1.26 1.32 1.36 1.37 1.37 1.30 1.41 1.44 1.44 1.40 1.44 1.48 1.60 1.82 2.06 2.21 2.18 2.10 2.07 2.23
0.39 0.50 0.64 0.98 1.17 1.13 0.99 1.10 1.10 0.74 0.58 0.52 0.55 0.63 0.76 0.97 1.29 1.59 1.85 1.99 1.95 1.74 1.50 1.28 1.10 1.00 0.97 1.03 1.12 1.19 1.21 1.22 1.18 1.19 1.12 1.17 1.27 1.26 1.22 1.23 1.32 1.47 1.60 1.78 2.00 2.09 2.03 2.03 2.11
0.41 0.58 0.74 0.96 0.99 1.26 1.41 1.39 1.13 0.98 0.83 0.79 0.89 1.08 1.27 1.51 1.73 1.93 2.11 2.21 1.96 1.78 1.52 1.26 1.09 1.07 1.08 1.11 1.14 1.17 1.12 1.09 1.06 1.02 0.97 1.02 1.10 1.10 1.10 1.24 1.30 1.37 1.47 1.67 1.93 2.11 2.12 2.04 2.05
0.52 0.76 0.98 1.37 1.25 1.15 1.39 1.44 1.05 0.95 0.96 0.99 1.11 1.21 1.34 1.47 1.49 1.61 1.71 1.72 1.72 1.67 1.48 1.28 1.17 1.16 1.20 1.21 1.25 1.20 1.12 1.06 1.04 0.99 0.90 0.88 0.84 0.84 0.96 1.10 1.13 1.17 1.22 1.43 1.72 1.92 1.98 1.96 1.86

GEFSSGP_prec_meanprecacc_306.txt.gz
Total_Precipitation_Accumulation
2.64 2.57 3.11 4.12 4.78 4.30 3.79 3.05 2.58 2.39 2.01 1.57 1.21 1.19 1.49 1.94 2.46 2.97 3.30 3.07 2.13 1.69 1.78 2.61 3.31 2.99 2.47 2.13 1.97 2.01 2.00 2.11 2.06 2.06 1.88 1.72 1.58 1.50 1.33 1.17 1.21 1.17 1.07 1.00 0.98 1.12 1.17 1.14 1.31
1.98 2.87 3.76 4.75 4.43 3.77 3.52 3.08 2.79 2.26 1.63 1.29 0.95 0.88 0.99 1.08 1.15 1.84 3.11 2.97 1.88 1.54 1.62 1.96 2.72 2.61 2.18 1.97 1.96 2.07 2.10 2.23 2.15 2.00 1.80 1.66 1.64 1.57 1.41 1.30 1.39 1.21 1.08 1.02 1.02 1.14 1.25 1.18 1.30
2.11 3.28 4.34 4.63 3.55 3.26 3.40 3.17 2.59 1.87 1.33 1.20 1.01 0.88 1.09 1.40 1.50 2.11 2.89 2.23 1.61 1.49 1.59 2.12 2.71 2.45 2.13 1.93 2.10 2.31 2.31 2.29 2.10 1.86 1.67 1.66 1.68 1.62 1.54 1.52 1.48 1.22 1.12 1.05 1.04 1.13 1.17 1.16 1.21
2.51 3.71 4.00 3.72 3.11 2.71 2.84 2.79 2.18 1.72 1.30 0.91 0.90 0.94 1.02 1.47 1.54 1.87 1.92 1.59 1.39 1.51 1.60 2.02 2.58 2.42 2.20 2.01 2.22 2.34 2.38 2.40 2.27 2.00 1.76 1.70 1.67 1.62 1.56 1.59 1.43 1.26 1.15 1.04 1.01 1.08 1.14 1.14 1.18
2.99 3.91 3.84 3.32 2.96 2.63 2.35 1.97 1.70 1.60 1.30 0.98 0.84 1.08 1.50 1.91 1.69 1.57 1.51 1.43 1.28 1.37 1.39 1.64 2.30 2.40 2.25 2.14 2.35 2.41 2.46 2.59 2.55 2.27 2.06 1.84 1.68 1.61 1.58 1.60 1.45 1.35 1.27 1.18 1.14 1.16 1.17 1.13 1.19
3.34 3.41 3.66 3.24 2.90 2.69 2.54 1.85 1.58 1.54 1.20 0.97 0.91 1.16 1.95 2.32 1.92 1.67 1.48 1.55 1.49 1.45 1.35 1.35 1.99 2.25 2.24 2.28 2.33 2.31 2.34 2.40 2.44 2.21 1.99 1.79 1.64 1.58 1.66 1.68 1.50 1.41 1.28 1.22 1.22 1.27 1.32 1.27 1.24
3.27 3.33 3.34 2.77 2.81 3.01 2.60 1.81 1.64 1.53 1.43 1.14 0.85 1.30 2.07 2.45 2.01 1.66 1.56 1.57 1.66 1.58 1.52 1.41 1.55 1.86 2.20 2.25 2.12 2.11 2.09 2.11 2.24 2.07 1.92 1.71 1.60 1.51 1.58 1.63 1.52 1.44 1.39 1.36 1.33 1.43 1.44 1.30 1.26
2.42 2.72 2.75 2.68 2.84 3.04 2.24 1.67 1.35 1.32 1.30 0.96 0.80 1.28 1.89 1.89 1.68 1.64 1.72 1.86 1.99 1.77 1.64 1.45 1.39 1.48 1.57 1.79 1.93 2.07 2.13 2.12 2.19 2.01 1.79 1.63 1.53 1.39 1.46 1.45 1.42 1.49 1.53 1.58 1.56 1.58 1.52 1.45 1.34
2.19 2.86 3.13 3.09 2.82 2.41 1.58 1.41 1.20 1.00 1.08 0.95 0.76 0.85 1.08 1.14 1.28 1.53 1.63 1.74 1.82 1.56 1.46 1.50 1.50 1.53 1.57 1.52 1.58 1.89 2.03 2.06 1.94 1.86 1.75 1.57 1.30 1.15 1.24 1.27 1.50 1.59 1.69 1.76 1.77 1.72 1.66 1.49 1.30
2.24 2.98 2.94 2.33 2.05 1.77 1.29 1.21 1.09 1.11 1.18 1.10 0.90 0.88 1.00 1.05 1.28 1.47 1.43 1.46 1.39 1.29 1.25 1.32 1.35 1.47 1.52 1.37 1.59 1.88 1.73 1.64 1.40 1.42 1.29 1.32 1.24 1.17 0.97 1.14 1.52 1.66 1.68 1.66 1.72 1.78 1.58 1.27 0.95
1.77 2.30 2.06 1.80 1.58 1.32 1.16 1.20 1.07 1.11 1.28 1.17 0.97 1.01 1.25 1.28 1.28 1.24 1.18 1.22 1.13 1.08 1.05 1.01 1.07 1.12 1.25 1.42 1.66 1.96 2.02 1.83 1.61 1.37 1.28 1.32 1.23 1.11 0.99 1.01 1.16 1.29 1.32 1.18 1.20 1.22 1.09 0.99 0.90
1.51 1.50 1.48 1.67 1.42 1.33 1.13 1.10 1.14 1.11 1.17 1.04 0.86 0.88 1.08 1.25 1.33 1.21 1.03 1.01 0.88 0.89 0.99 0.82 0.73 0.88 1.04 1.16 1.30 1.58 1.65 1.58 1.46 1.26 1.17 1.28 1.30 1.18 1.13 1.11 1.15 1.16 1.14 1.17 1.14 1.19 1.15 0.97 0.87
1.84 1.57 1.35 1.33 1.33 1.38 1.17 1.09 1.08 1.08 1.00 0.88 0.82 0.96 1.07 1.11 1.15 1.07 0.95 0.90 0.87 0.89 0.94 0.85 0.73 0.72 0.80 0.86 0.97 1.12 1.28 1.35 1.38 1.34 1.16 1.17 1.29 1.25 1.22 1.16 1.21 1.09 1.01 1.08 1.14 1.16 1.18 1.08 0.93
1.69 1.49 1.47 1.46 1.36 1.34 1.34 1.09 1.07 1.28 1.00 0.87 0.93 1.02 1.01 0.98 0.97 1.03 0.96 0.92 0.86 0.83 0.93 0.91 0.80 0.78 0.80 0.77 0.76 0.77 0.91 1.09 1.21 1.25 1.16 1.18 1.27 1.28 1.34 1.27 1.21 1.15 1.06 1.09 1.25 1.21 1.23 1.20 1.13
1.56 1.72 1.65 1.55 1.44 1.41 1.34 1.46 1.36 1.24 1.03 0.97 1.04 0.99 0.96 0.91 0.89 0.98 0.91 0.83 0.80 0.80 0.85 0.91 0.89 0.90 0.91 0.87 0.83 0.69 0.73 0.83 1.00 1.15 1.14 1.22 1.19 1.13 1.20 1.22 1.16 1.15 1.16 1.18 1.22 1.26 1.32 1.23 1.15
1.81 2.01 2.14 1.80 1.51 1.31 1.36 1.84 1.69 1.36 1.11 1.13 1.10 1.00 0.95 0.90 0.85 0.89 0.86 0.85 0.82 0.83 0.89 0.95 0.95 0.99 1.02 1.03 1.00 0.91 0.93 1.01 1.09 1.25 1.23 1.20 1.24 1.21 1.20 1.22 1.22 1.25 1.29 1.28 1.31 1.37 1.36 1.31 1.29
2.00 2.02 1.89 1.74 1.38 1.15 1.21 1.55 1.56 1.40 1.15 1.03 1.02 0.97 0.87 0.77 0.74 0.72 0.70 0.70 0.76 0.79 0.83 0.88 0.97 1.02 1.06 1.11 1.19 1.28 1.31 1.30 1.30 1.37 1.31 1.21 1.23 1.28 1.40 1.43 1.44 1.40 1.41 1.41 1.36 1.39 1.30 1.31 1.33
1.90 1.60 1.40 1.36 1.25 1.10 1.03 1.15 1.19 1.22 1.10 0.93 0.83 0.81 0.81 0.70 0.66 0.60 0.56 0.58 0.66 0.71 0.76 0.83 0.90 1.07 1.19 1.26 1.28 1.43 1.48 1.53 1.59 1.63 1.47 1.34 1.38 1.51 1.70 1.78 1.68 1.64 1.64 1.62 1.56 1.62 1.51 1.40 1.43
1.38 1.34 1.23 1.05 1.01 1.06 0.98 0.97 1.00 0.99 0.98 0.87 0.75 0.62 0.60 0.58 0.55 0.52 0.48 0.51 0.55 0.60 0.65 0.74 0.80 0.96 1.06 1.12 1.26 1.47 1.62 1.79 1.92 1.99 1.85 1.70 1.67 1.82 1.97 1.89 1.97 1.99 1.85 1.86 1.92 1.95 1.92 1.74 1.61
1.23 1.26 1.11 0.95 0.81 0.84 0.88 0.90 0.90 0.84 0.83 0.73 0.62 0.54 0.45 0.39 0.39 0.36 0.32 0.35 0.37 0.38 0.43 0.53 0.65 0.72 0.86 1.03 1.29 1.50 1.79 1.85 1.90 2.02 2.06 1.96 1.90 2.05 2.10 2.17 2.25 2.28 2.28 2.22 2.11 2.22 2.37 2.12 1.89
1.03 1.09 0.99 0.93 0.81 0.74 0.74 0.91 0.85 0.78 0.74 0.65 0.51 0.43 0.35 0.27 0.24 0.20 0.20 0.26 0.31 0.30 0.33 0.42 0.55 0.70 0.94 1.18 1.50 1.78 2.07 2.18 2.22 2.15 2.18 2.20 2.22 2.28 2.31 2.37 2.42 2.43 2.28 2.27 2.38 2.51 2.86 2.67 2.31
1.00 0.74 0.68 0.70 0.87 0.90 0.76 1.07 0.79 0.65 0.64 0.57 0.49 0.44 0.36 0.27 0.21 0.19 0.19 0.22 0.25 0.28 0.35 0.48 0.68 0.91 1.18 1.51 1.89 2.16 2.41 2.54 2.37 2.33 2.32 2.28 2.21 2.24 2.36 2.36 2.34 2.30 2.24 2.31 2.38 2.43 2.85 3.07 2.78
0.69 0.57 0.68 0.72 0.78 0.74 0.56 0.74 0.68 0.54 0.60 0.52 0.44 0.42 0.41 0.33 0.27 0.24 0.25 0.29 0.35 0.43 0.52 0.70 0.98 1.29 1.56 1.81 2.01 2.26 2.40 2.40 2.35 2.31 2.31 2.21 2.15 2.11 2.13 2.13 2.23 2.24 2.28 2.34 2.50 2.64 2.91 2.94 2.94
0.51 0.61 0.74 0.77 0.84 0.90 0.50 0.58 0.69 0.54 0.50 0.49 0.43 0.38 0.34 0.32 0.33 0.34 0.36 0.45 0.54 0.62 0.78 0.97 1.16 1.47 1.66 1.80 1.91 2.07 2.22 2.26 2.25 2.25 2.29 2.27 2.22 2.09 2.00 1.93 2.01 2.15 2.29 2.34 2.44 2.60 2.86 2.98 3.06
0.50 0.87 1.22 1.25 1.19 0.90 0.44 0.62 0.72 0.53 0.41 0.37 0.39 0.37 0.33 0.38 0.43 0.45 0.57 0.71 0.78 0.83 0.95 1.13 1.21 1.41 1.51 1.57 1.69 1.82 1.88 1.92 1.94 1.93 1.93 1.86 1.81 1.80 1.85 1.89 1.97 2.10 2.19 2.26 2.38 2.52 2.59 2.71 2.96
0.46 0.72 1.24 1.35 1.16 0.84 0.58 0.85 0.77 0.52 0.41 0.39 0.39 0.36 0.39 0.50 0.61 0.71 0.86 0.95 1.04 1.07 1.04 1.09 1.24 1.27 1.27 1.33 1.33 1.44 1.54 1.60 1.64 1.60 1.59 1.63 1.66 1.68 1.64 1.68 1.75 1.97 2.15 2.23 2.32 2.33 2.32 2.38 2.57
0.48 0.52 0.59 0.86 0.82 0.86 0.80 0.96 0.89 0.53 0.44 0.44 0.43 0.41 0.48 0.65 0.86 1.10 1.30 1.39 1.48 1.42 1.25 1.12 1.12 1.10 1.09 1.19 1.25 1.29 1.35 1.39 1.41 1.40 1.33 1.44 1.46 1.47 1.42 1.47 1.50 1.62 1.83 2.07 2.22 2.18 2.10 2.07 2.23
0.39 0.51 0.66 1.00 1.19 1.17 1.02 1.12 1.13 0.76 0.60 0.53 0.55 0.63 0.76 0.97 1.30 1.59 1.85 2.02 2.01 1.79 1.53 1.30 1.11 1.02 0.99 1.06 1.15 1.21 1.23 1.24 1.21 1.23 1.15 1.20 1.29 1.29 1.23 1.24 1.34 1.50 1.62 1.79 2.00 2.09 2.04 2.04 2.11
0.43 0.59 0.75 0.98 1.02 1.29 1.43 1.41 1.15 1.00 0.85 0.80 0.89 1.08 1.27 1.52 1.74 1.94 2.12 2.24 2.04 1.84 1.55 1.28 1.11 1.09 1.11 1.14 1.17 1.19 1.15 1.12 1.09 1.04 1.00 1.05 1.13 1.11 1.11 1.26 1.33 1.41 1.50 1.69 1.93 2.11 2.12 2.04 2.05
0.55 0.80 1.03 1.42 1.30 1.20 1.44 1.49 1.08 0.97 0.97 1.00 1.12 1.22 1.35 1.48 1.50 1.62 1.72 1.73 1.78 1.72 1.52 1.31 1.19 1.18 1.22 1.24 1.27 1.23 1.16 1.09 1.07 1.02 0.93 0.92 0.88 0.86 0.97 1.11 1.17 1.22 1.25 1.44 1.72 1.93 1.98 1.96 1.86

GEFSSGP_prec_meanprecacc_312.txt.gz
Total_Precipitation_Accumulation
2.86 2.75 3.18 4.14 4.79 4.30 3.80 3.06 2.60 2.41 2.03 1.60 1.23 1.21 1.51 1.97 2.51 3.00 3.32 3.10 2.15 1.70 1.80 2.65 3.36 3.03 2.52 2.16 2.00 2.04 2.03 2.15 2.12 2.12 1.92 1.77 1.63 1.56 1.40 1.23 1.29 1.26 1.13 1.05 1.04 1.18 1.25 1.24 1.38
2.17 2.97 3.80 4.77 4.44 3.78 3.54 3.10 2.81 2.28 1.64 1.30 0.96 0.88 0.99 1.09 1.16 1.85 3.12 2.98 1.89 1.55 1.63 1.98 2.76 2.64 2.21 2.00 1.99 2.11 2.14 2.27 2.20 2.07 1.87 1.72 1.69 1.61 1.46 1.36 1.43 1.27 1.17 1.07 1.06 1.19 1.33 1.27 1.36
2.22 3.35 4.37 4.64 3.55 3.28 3.43 3.20 2.61 1.89 1.33 1.21 1.01 0.88 1.10 1.42 1.50 2.12 2.89 2.24 1.62 1.50 1.60 2.15 2.74 2.47 2.15 1.96 2.13 2.35 2.37 2.34 2.17 1.94 1.74 1.71 1.73 1.67 1.59 1.57 1.52 1.26 1.17 1.08 1.07 1.17 1.21 1.19 1.23
2.57 3.75 4.01 3.73 3.11 2.72 2.86 2.82 2.21 1.75 1.31 0.92 0.90 0.95 1.04 1.48 1.56 1.88 1.92 1.59 1.40 1.52 1.61 2.05 2.63 2.45 2.22 2.03 2.25 2.38 2.43 2.48 2.38 2.09 1.82 1.74 1.71 1.67 1.60 1.62 1.46 1.30 1.18 1.07 1.04 1.11 1.17 1.16 1.20
3.02 3.93 3.85 3.32 2.97 2.64 2.36 1.99 1.75 1.65 1.33 1.00 0.85 1.09 1.52 1.93 1.72 1.59 1.53 1.44 1.28 1.38 1.41 1.66 2.34 2.43 2.27 2.17 2.38 2.45 2.50 2.67 2.63 2.33 2.12 1.90 1.72 1.66 1.62 1.64 1.48 1.37 1.28 1.21 1.16 1.18 1.20 1.17 1.22
3.35 3.43 3.68 3.25 2.92 2.72 2.57 1.89 1.65 1.60 1.22 0.98 0.93 1.19 1.98 2.38 1.99 1.71 1.51 1.57 1.50 1.46 1.37 1.37 2.02 2.28 2.27 2.31 2.36 2.35 2.37 2.44 2.49 2.26 2.06 1.86 1.70 1.63 1.70 1.72 1.53 1.43 1.30 1.24 1.24 1.30 1.35 1.31 1.29
3.28 3.35 3.36 2.79 2.83 3.03 2.64 1.85 1.69 1.57 1.45 1.16 0.87 1.33 2.10 2.53 2.11 1.72 1.58 1.58 1.67 1.59 1.53 1.42 1.56 1.87 2.22 2.27 2.14 2.15 2.13 2.15 2.28 2.12 1.97 1.77 1.66 1.57 1.62 1.66 1.55 1.48 1.43 1.38 1.36 1.47 1.47 1.34 1.31
2.44 2.73 2.77 2.70 2.85 3.05 2.27 1.71 1.39 1.35 1.33 0.99 0.82 1.32 1.95 2.00 1.77 1.69 1.76 1.88 2.00 1.78 1.64 1.46 1.40 1.49 1.58 1.80 1.95 2.10 2.16 2.15 2.23 2.04 1.82 1.67 1.57 1.45 1.52 1.49 1.47 1.55 1.58 1.63 1.62 1.64 1.58 1.50 1.38
2.21 2.87 3.15 3.11 2.85 2.43 1.60 1.45 1.24 1.04 1.11 0.98 0.79 0.87 1.13 1.20 1.35 1.58 1.68 1.76 1.83 1.56 1.46 1.50 1.51 1.53 1.58 1.52 1.59 1.90 2.04 2.08 1.97 1.88 1.76 1.58 1.32 1.18 1.28 1.33 1.57 1.66 1.75 1.81 1.83 1.79 1.72 1.55 1.34
2.25 2.99 2.97 2.36 2.07 1.79 1.31 1.23 1.12 1.13 1.19 1.11 0.92 0.91 1.02 1.08 1.31 1.50 1.47 1.49 1.40 1.30 1.25 1.32 1.35 1.47 1.52 1.37 1.59 1.89 1.73 1.64 1.41 1.42 1.29 1.32 1.25 1.17 0.98 1.17 1.57 1.72 1.72 1.70 1.76 1.81 1.60 1.30 0.97
1.78 2.30 2.07 1.82 1.60 1.33 1.17 1.21 1.08 1.12 1.29 1.18 0.99 1.04 1.30 1.32 1.32 1.28 1.21 1.25 1.16 1.10 1.06 1.02 1.08 1.13 1.26 1.42 1.66 1.96 2.02 1.83 1.61 1.37 1.28 1.32 1.23 1.11 1.00 1.01 1.18 1.31 1.33 1.19 1.21 1.23 1.10 1.00 0.92
1.52 1.50 1.49 1.68 1.43 1.34 1.14 1.11 1.15 1.12 1.19 1.06 0.87 0.91 1.12 1.30 1.38 1.27 1.08 1.04 0.90 0.90 1.00 0.83 0.74 0.88 1.05 1.17 1.30 1.58 1.65 1.58 1.46 1.26 1.17 1.28 1.30 1.18 1.13 1.11 1.15 1.17 1.15 1.17 1.15 1.19 1.16 0.97 0.88
1.86 1.59 1.36 1.34 1.34 1.39 1.17 1.09 1.09 1.10 1.01 0.89 0.83 0.98 1.10 1.13 1.18 1.11 1.00 0.95 0.91 0.92 0.96 0.87 0.75 0.73 0.81 0.86 0.97 1.12 1.28 1.36 1.38 1.34 1.16 1.17 1.30 1.26 1.22 1.16 1.21 1.09 1.01 1.08 1.14 1.17 1.19 1.08 0.94
1.73 1.51 1.48 1.47 1.37 1.35 1.34 1.09 1.08 1.30 1.01 0.89 0.95 1.04 1.03 1.00 0.98 1.05 0.99 0.96 0.89 0.87 0.96 0.92 0.81 0.79 0.81 0.77 0.77 0.77 0.92 1.09 1.21 1.25 1.16 1.18 1.28 1.29 1.34 1.27 1.21 1.15 1.06 1.09 1.26 1.22 1.24 1.22 1.15
1.63 1.77 1.68 1.57 1.45 1.41 1.34 1.46 1.36 1.25 1.04 0.99 1.05 1.00 0.96 0.92 0.90 0.98 0.91 0.84 0.82 0.84 0.90 0.95 0.91 0.92 0.92 0.87 0.83 0.69 0.73 0.84 1.01 1.15 1.15 1.22 1.20 1.14 1.21 1.23 1.17 1.15 1.16 1.18 1.23 1.27 1.34 1.26 1.16
1.86 2.06 2.19 1.83 1.54 1.32 1.36 1.85 1.70 1.37 1.11 1.13 1.11 1.01 0.96 0.91 0.86 0.90 0.88 0.86 0.82 0.85 0.91 0.99 0.99 1.03 1.04 1.04 1.01 0.92 0.94 1.03 1.10 1.26 1.25 1.21 1.25 1.21 1.20 1.23 1.22 1.25 1.29 1.28 1.31 1.38 1.37 1.32 1.32
2.02 2.05 1.92 1.77 1.40 1.17 1.22 1.56 1.57 1.40 1.15 1.04 1.02 0.97 0.87 0.78 0.75 0.74 0.71 0.72 0.77 0.80 0.84 0.90 1.00 1.06 1.09 1.13 1.22 1.31 1.33 1.32 1.33 1.40 1.34 1.23 1.24 1.29 1.41 1.44 1.44 1.40 1.42 1.41 1.36 1.39 1.32 1.32 1.34
1.91 1.61 1.41 1.38 1.27 1.12 1.05 1.17 1.20 1.23 1.12 0.94 0.84 0.82 0.83 0.72 0.67 0.62 0.58 0.60 0.68 0.73 0.78 0.85 0.92 1.11 1.23 1.29 1.31 1.46 1.51 1.55 1.61 1.65 1.49 1.37 1.41 1.54 1.72 1.80 1.69 1.65 1.64 1.62 1.57 1.62 1.51 1.40 1.44
1.39 1.35 1.23 1.06 1.02 1.08 0.99 0.98 1.01 1.00 0.99 0.88 0.75 0.63 0.61 0.59 0.56 0.54 0.50 0.53 0.57 0.61 0.66 0.75 0.81 0.97 1.08 1.14 1.29 1.51 1.68 1.84 1.94 2.00 1.87 1.72 1.69 1.85 1.99 1.91 1.99 2.00 1.86 1.86 1.92 1.96 1.92 1.74 1.61
1.23 1.26 1.11 0.96 0.81 0.85 0.88 0.91 0.91 0.84 0.84 0.74 0.63 0.54 0.46 0.40 0.40 0.37 0.34 0.36 0.39 0.39 0.44 0.54 0.66 0.73 0.87 1.05 1.30 1.52 1.82 1.90 1.96 2.05 2.08 1.98 1.92 2.07 2.11 2.18 2.26 2.29 2.29 2.22 2.12 2.23 2.37 2.12 1.89
1.04 1.10 1.00 0.93 0.82 0.75 0.74 0.91 0.85 0.79 0.74 0.65 0.52 0.44 0.35 0.28 0.24 0.20 0.22 0.28 0.33 0.32 0.34 0.43 0.55 0.71 0.95 1.20 1.51 1.79 2.08 2.20 2.25 2.19 2.22 2.23 2.24 2.29 2.33 2.38 2.43 2.44 2.29 2.28 2.39 2.52 2.86 2.68 2.31
1.01 0.74 0.69 0.71 0.89 0.93 0.77 1.07 0.79 0.65 0.64 0.58 0.49 0.45 0.36 0.27 0.22 0.20 0.21 0.23 0.26 0.30 0.37 0.49 0.69 0.91 1.19 1.54 1.90 2.17 2.43 2.56 2.40 2.36 2.37 2.33 2.25 2.27 2.39 2.38 2.36 2.32 2.25 2.31 2.38 2.43 2.85 3.07 2.78
0.70 0.58 0.69 0.74 0.79 0.75 0.58 0.76 0.69 0.54 0.60 0.53 0.44 0.43 0.42 0.34 0.27 0.25 0.26 0.29 0.36 0.44 0.53 0.71 0.99 1.30 1.58 1.83 2.03 2.27 2.40 2.41 2.37 2.34 2.34 2.25 2.20 2.17 2.19 2.18 2.27 2.27 2.29 2.35 2.51 2.64 2.91 2.94 2.94
0.51 0.62 0.76 0.79 0.85 0.91 0.51 0.60 0.70 0.54 0.50 0.49 0.43 0.39 0.35 0.33 0.34 0.35 0.37 0.46 0.55 0.63 0.79 0.99 1.17 1.48 1.67 1.82 1.93 2.08 2.23 2.28 2.27 2.28 2.31 2.30 2.26 2.15 2.06 2.00 2.07 2.20 2.33 2.37 2.45 2.61 2.86 2.98 3.06
0.52 0.90 1.25 1.27 1.20 0.91 0.44 0.63 0.73 0.54 0.41 0.37 0.39 0.37 0.33 0.38 0.45 0.45 0.57 0.71 0.79 0.85 0.97 1.15 1.22 1.42 1.53 1.59 1.70 1.84 1.90 1.94 1.96 1.96 1.97 1.89 1.85 1.83 1.88 1.93 2.01 2.13 2.22 2.29 2.41 2.54 2.59 2.71 2.96
0.47 0.74 1.26 1.37 1.17 0.85 0.59 0.86 0.78 0.52 0.41 0.39 0.39 0.36 0.39 0.52 0.63 0.72 0.87 0.96 1.04 1.08 1.06 1.12 1.26 1.29 1.28 1.35 1.36 1.47 1.56 1.61 1.66 1.63 1.62 1.66 1.70 1.72 1.67 1.71 1.77 1.99 2.17 2.25 2.34 2.35 2.33 2.39 2.58
0.49 0.53 0.60 0.87 0.83 0.87 0.82 0.98 0.90 0.53 0.45 0.44 0.44 0.42 0.49 0.66 0.87 1.11 1.30 1.39 1.48 1.43 1.27 1.13 1.14 1.12 1.11 1.21 1.28 1.32 1.38 1.42 1.44 1.44 1.36 1.47 1.50 1.50 1.46 1.50 1.52 1.64 1.85 2.09 2.23 2.20 2.12 2.08 2.23
0.40 0.53 0.68 1.02 1.20 1.18 1.04 1.14 1.13 0.76 0.60 0.53 0.56 0.64 0.77 0.98 1.30 1.60 1.86 2.02 2.01 1.80 1.55 1.31 1.13 1.05 1.02 1.08 1.17 1.25 1.28 1.29 1.25 1.27 1.19 1.23 1.32 1.31 1.26 1.26 1.37 1.53 1.64 1.81 2.02 2.10 2.04 2.04 2.12
0.44 0.61 0.77 1.00 1.04 1.31 1.45 1.42 1.16 1.01 0.86 0.80 0.89 1.09 1.27 1.52 1.74 1.94 2.12 2.24 2.05 1.85 1.57 1.30 1.13 1.11 1.13 1.16 1.19 1.21 1.17 1.15 1.13 1.08 1.03 1.07 1.15 1.14 1.14 1.29 1.36 1.44 1.53 1.71 1.95 2.12 2.12 2.05 2.05
0.56 0.81 1.04 1.43 1.32 1.22 1.48 1.52 1.10 0.98 0.98 1.01 1.12 1.22 1.36 1.49 1.51 1.63 1.73 1.74 1.79 1.73 1.53 1.33 1.20 1.19 1.24 1.26 1.29 1.24 1.17 1.11 1.09 1.04 0.95 0.94 0.91 0.88 1.00 1.14 1.19 1.25 1.28 1.47 1.75 1.95 2.00 1.97 1.87

GEFSSGP_prec_meanprecacc_318.txt.gz
Total_Precipitation_Accumulation
2.89 2.87 3.32 4.16 4.80 4.32 3.81 3.06 2.61 2.44 2.05 1.62 1.24 1.22 1.53 2.00 2.55 3.03 3.34 3.11 2.16 1.71 1.82 2.68 3.42 3.10 2.60 2.22 2.05 2.10 2.08 2.19 2.17 2.15 1.96 1.82 1.69 1.62 1.51 1.40 1.45 1.40 1.25 1.13 1.10 1.25 1.33 1.30 1.43
2.21 3.05 3.89 4.80 4.45 3.79 3.55 3.11 2.82 2.29 1.65 1.32 0.97 0.89 0.99 1.10 1.17 1.87 3.15 3.00 1.90 1.56 1.64 2.00 2.80 2.68 2.26 2.06 2.03 2.17 2.21 2.32 2.26 2.12 1.91 1.76 1.74 1.67 1.53 1.49 1.60 1.42 1.30 1.17 1.11 1.25 1.42 1.36 1.43
2.31 3.39 4.39 4.68 3.58 3.29 3.44 3.20 2.62 1.89 1.34 1.22 1.02 0.89 1.10 1.43 1.51 2.13 2.92 2.26 1.63 1.51 1.61 2.18 2.79 2.53 2.20 2.00 2.19 2.41 2.44 2.41 2.22 1.99 1.78 1.75 1.79 1.72 1.65 1.64 1.65 1.41 1.31 1.20 1.14 1.24 1.30 1.27 1.28
2.68 3.83 4.04 3.76 3.14 2.73 2.87 2.83 2.22 1.77 1.33 0.93 0.92 0.96 1.05 1.49 1.57 1.89 1.93 1.61 1.41 1.53 1.63 2.09 2.68 2.50 2.27 2.06 2.29 2.44 2.51 2.56 2.45 2.15 1.88 1.80 1.77 1.72 1.66 1.70 1.54 1.40 1.29 1.16 1.12 1.20 1.25 1.23 1.24
3.09 3.99 3.89 3.36 2.99 2.66 2.37 2.00 1.76 1.68 1.35 1.01 0.86 1.11 1.53 1.95 1.73 1.60 1.54 1.45 1.29 1.39 1.42 1.69 2.38 2.48 2.31 2.21 2.43 2.50 2.58 2.76 2.69 2.39 2.20 1.96 1.79 1.73 1.69 1.73 1.56 1.45 1.37 1.29 1.25 1.27 1.28 1.23 1.27
3.38 3.46 3.73 3.29 2.94 2.73 2.58 1.90 1.67 1.62 1.23 0.98 0.93 1.20 2.00 2.39 2.01 1.72 1.52 1.58 1.50 1.46 1.38 1.38 2.04 2.31 2.30 2.34 2.41 2.41 2.43 2.51 2.56 2.35 2.16 1.94 1.78 1.73 1.80 1.82 1.62 1.51 1.37 1.30 1.31 1.36 1.41 1.38 1.36
3.31 3.40 3.43 2.83 2.85 3.04 2.65 1.86 1.70 1.59 1.46 1.17 0.88 1.35 2.13 2.57 2.15 1.73 1.59 1.59 1.68 1.60 1.53 1.43 1.57 1.89 2.23 2.30 2.18 2.20 2.18 2.20 2.34 2.19 2.05 1.87 1.79 1.73 1.75 1.76 1.64 1.56 1.51 1.46 1.44 1.55 1.58 1.47 1.43
2.45 2.77 2.82 2.74 2.86 3.06 2.28 1.71 1.40 1.37 1.35 1.01 0.83 1.35 2.02 2.04 1.80 1.71 1.77 1.89 2.00 1.78 1.65 1.46 1.41 1.50 1.59 1.81 1.97 2.14 2.20 2.19 2.27 2.08 1.87 1.74 1.68 1.56 1.61 1.58 1.56 1.65 1.68 1.74 1.74 1.74 1.66 1.58 1.46
2.22 2.90 3.18 3.15 2.86 2.45 1.61 1.46 1.25 1.04 1.12 0.98 0.80 0.88 1.17 1.26 1.39 1.62 1.70 1.79 1.85 1.57 1.47 1.51 1.51 1.54 1.58 1.53 1.60 1.92 2.06 2.11 2.00 1.91 1.79 1.60 1.35 1.22 1.36 1.45 1.74 1.85 1.92 1.94 1.94 1.86 1.76 1.58 1.38
2.26 3.00 2.99 2.38 2.08 1.81 1.32 1.24 1.12 1.13 1.19 1.12 0.93 0.91 1.03 1.11 1.36 1.54 1.49 1.50 1.42 1.31 1.26 1.32 1.35 1.47 1.52 1.38 1.60 1.90 1.74 1.65 1.42 1.44 1.31 1.34 1.27 1.21 1.03 1.24 1.68 1.83 1.82 1.77 1.83 1.86 1.63 1.32 0.99
1.79 2.31 2.08 1.83 1.60 1.34 1.18 1.22 1.09 1.13 1.30 1.19 0.99 1.05 1.31 1.34 1.36 1.31 1.24 1.28 1.18 1.12 1.07 1.02 1.08 1.13 1.26 1.42 1.66 1.96 2.03 1.84 1.61 1.37 1.29 1.33 1.25 1.14 1.02 1.04 1.21 1.34 1.37 1.21 1.22 1.24 1.11 1.01 0.93
1.53 1.51 1.50 1.69 1.43 1.34 1.14 1.11 1.15 1.13 1.19 1.06 0.88 0.92 1.13 1.32 1.41 1.30 1.11 1.07 0.93 0.92 1.01 0.84 0.75 0.89 1.06 1.17 1.30 1.58 1.65 1.58 1.47 1.27 1.18 1.28 1.31 1.18 1.13 1.12 1.16 1.18 1.16 1.18 1.15 1.20 1.17 0.99 0.89
1.87 1.60 1.37 1.35 1.35 1.40 1.18 1.09 1.10 1.10 1.01 0.90 0.84 0.99 1.12 1.15 1.21 1.14 1.02 0.97 0.93 0.94 0.97 0.87 0.75 0.74 0.81 0.86 0.97 1.12 1.28 1.36 1.38 1.35 1.16 1.17 1.30 1.26 1.22 1.16 1.21 1.09 1.02 1.08 1.15 1.18 1.20 1.10 0.95
1.75 1.52 1.49 1.47 1.37 1.36 1.35 1.09 1.08 1.30 1.01 0.89 0.95 1.04 1.04 1.01 1.00 1.07 1.02 1.00 0.91 0.89 0.98 0.93 0.81 0.79 0.82 0.78 0.77 0.77 0.92 1.09 1.22 1.26 1.16 1.18 1.28 1.29 1.34 1.28 1.22 1.15 1.07 1.10 1.27 1.23 1.25 1.23 1.15
1.66 1.80 1.70 1.59 1.46 1.42 1.35 1.47 1.37 1.25 1.04 0.99 1.06 1.01 0.97 0.94 0.92 1.01 0.95 0.89 0.85 0.86 0.92 0.97 0.92 0.93 0.93 0.88 0.84 0.70 0.74 0.84 1.01 1.16 1.16 1.23 1.20 1.14 1.21 1.23 1.18 1.16 1.17 1.19 1.24 1.28 1.35 1.27 1.17
1.89 2.10 2.22 1.86 1.56 1.33 1.37 1.86 1.71 1.37 1.11 1.14 1.11 1.02 0.97 0.93 0.88 0.91 0.90 0.88 0.85 0.87 0.94 1.03 1.01 1.04 1.05 1.06 1.02 0.94 0.96 1.04 1.11 1.27 1.25 1.21 1.25 1.21 1.20 1.23 1.22 1.25 1.29 1.28 1.31 1.39 1.38 1.34 1.33
2.05 2.08 1.94 1.79 1.43 1.19 1.24 1.58 1.58 1.41 1.15 1.04 1.03 0.98 0.88 0.78 0.76 0.75 0.72 0.72 0.77 0.81 0.87 0.93 1.03 1.08 1.10 1.14 1.23 1.32 1.34 1.33 1.34 1.40 1.34 1.23 1.25 1.30 1.41 1.44 1.45 1.40 1.42 1.42 1.37 1.39 1.32 1.33 1.34
1.93 1.62 1.42 1.39 1.29 1.14 1.08 1.19 1.22 1.24 1.12 0.95 0.85 0.82 0.83 0.72 0.68 0.63 0.59 0.60 0.68 0.74 0.79 0.87 0.95 1.14 1.26 1.31 1.32 1.47 1.52 1.56 1.62 1.66 1.50 1.37 1.42 1.55 1.73 1.81 1.70 1.66 1.65 1.63 1.57 1.62 1.52 1.40 1.44
1.40 1.36 1.24 1.07 1.03 1.10 1.01 1.00 1.02 1.01 1.00 0.89 0.76 0.64 0.61 0.60 0.56 0.54 0.51 0.53 0.58 0.62 0.67 0.77 0.83 0.99 1.11 1.18 1.31 1.53 1.70 1.86 1.95 2.01 1.87 1.74 1.71 1.86 2.01 1.92 2.00 2.01 1.87 1.87 1.93 1.96 1.93 1.75 1.61
1.24 1.27 1.12 0.97 0.82 0.86 0.89 0.92 0.92 0.85 0.85 0.75 0.63 0.55 0.47 0.42 0.40 0.38 0.34 0.36 0.40 0.40 0.45 0.55 0.67 0.74 0.88 1.07 1.32 1.54 1.85 1.93 2.01 2.09 2.09 1.99 1.93 2.08 2.12 2.19 2.28 2.30 2.30 2.23 2.12 2.23 2.38 2.12 1.89
1.04 1.10 1.01 0.94 0.83 0.76 0.75 0.92 0.86 0.79 0.75 0.66 0.52 0.45 0.36 0.29 0.25 0.21 0.22 0.28 0.33 0.32 0.35 0.43 0.56 0.72 0.97 1.21 1.52 1.79 2.09 2.21 2.28 2.24 2.26 2.25 2.26 2.30 2.34 2.40 2.44 2.45 2.31 2.30 2.40 2.53 2.87 2.68 2.31
1.01 0.75 0.70 0.72 0.90 0.94 0.77 1.08 0.80 0.65 0.64 0.58 0.49 0.45 0.37 0.27 0.22 0.21 0.21 0.24 0.27 0.31 0.37 0.50 0.70 0.92 1.20 1.55 1.91 2.17 2.43 2.57 2.41 2.39 2.40 2.37 2.28 2.28 2.39 2.39 2.37 2.33 2.27 2.33 2.40 2.45 2.87 3.09 2.79
0.71 0.60 0.71 0.76 0.81 0.77 0.59 0.77 0.70 0.54 0.60 0.53 0.44 0.43 0.42 0.34 0.28 0.26 0.26 0.30 0.37 0.45 0.54 0.72 0.99 1.30 1.58 1.83 2.03 2.28 2.41 2.43 2.38 2.35 2.36 2.26 2.22 2.19 2.20 2.19 2.27 2.28 2.30 2.36 2.53 2.66 2.93 2.96 2.96
0.54 0.65 0.80 0.82 0.88 0.92 0.52 0.61 0.72 0.55 0.51 0.49 0.44 0.39 0.35 0.33 0.34 0.35 0.37 0.47 0.55 0.63 0.80 0.99 1.18 1.48 1.68 1.82 1.94 2.09 2.23 2.29 2.28 2.29 2.33 2.31 2.27 2.16 2.07 2.01 2.08 2.21 2.34 2.38 2.46 2.62 2.88 3.00 3.09
0.53 0.93 1.28 1.30 1.22 0.92 0.45 0.64 0.74 0.54 0.42 0.37 0.39 0.37 0.33 0.38 0.45 0.46 0.57 0.72 0.79 0.85 0.98 1.16 1.23 1.43 1.53 1.59 1.71 1.85 1.90 1.94 1.97 1.97 1.98 1.90 1.85 1.84 1.89 1.94 2.01 2.14 2.24 2.31 2.43 2.56 2.61 2.73 2.98
0.49 0.76 1.28 1.40 1.19 0.86 0.60 0.88 0.79 0.53 0.41 0.39 0.39 0.36 0.40 0.52 0.63 0.73 0.87 0.96 1.04 1.08 1.07 1.13 1.27 1.30 1.29 1.35 1.36 1.48 1.57 1.63 1.67 1.63 1.63 1.68 1.71 1.73 1.68 1.71 1.78 1.99 2.18 2.26 2.36 2.38 2.36 2.42 2.60
0.50 0.54 0.61 0.89 0.85 0.88 0.83 1.00 0.91 0.54 0.45 0.45 0.44 0.42 0.49 0.66 0.87 1.11 1.30 1.39 1.48 1.44 1.27 1.15 1.16 1.14 1.12 1.22 1.29 1.33 1.38 1.43 1.45 1.46 1.38 1.48 1.51 1.51 1.46 1.50 1.53 1.64 1.86 2.09 2.24 2.21 2.14 2.11 2.26
0.41 0.54 0.69 1.04 1.24 1.20 1.05 1.15 1.15 0.77 0.62 0.54 0.57 0.64 0.77 0.98 1.31 1.60 1.86 2.03 2.01 1.80 1.55 1.32 1.14 1.06 1.03 1.09 1.18 1.26 1.29 1.29 1.26 1.29 1.21 1.25 1.34 1.33 1.27 1.27 1.38 1.54 1.65 1.83 2.03 2.11 2.06 2.06 2.14
0.45 0.62 0.78 1.02 1.07 1.34 1.49 1.47 1.19 1.04 0.88 0.81 0.90 1.09 1.28 1.53 1.75 1.95 2.13 2.25 2.05 1.85 1.57 1.31 1.13 1.12 1.14 1.17 1.20 1.22 1.18 1.16 1.14 1.09 1.05 1.10 1.17 1.16 1.15 1.30 1.37 1.45 1.54 1.72 1.96 2.13 2.13 2.06 2.07
0.57 0.82 1.06 1.46 1.35 1.25 1.52 1.59 1.13 1.00 0.99 1.01 1.12 1.22 1.36 1.49 1.51 1.63 1.74 1.75 1.80 1.74 1.55 1.34 1.22 1.21 1.25 1.27 1.30 1.25 1.19 1.13 1.10 1.06 0.98 0.97 0.93 0.90 1.01 1.14 1.20 1.25 1.29 1.48 1.76 1.96 2.01 1.99 1.88